Regional Weather Roundup
Issued by NWS Grand Forks, ND

Home | Current Version | Previous Version | Text Only | Print | Product List | Glossary Off
Versions: 1 2 3 4 5 6 7 8 9 10 11 12 13 14 15 16 17 18 19 20 21 22 23 24 25 26 27 28 29 30 31 32 33 34 35 36 37 38 39 40 41 42 43 44 45 46 47 48 49 50

000
ASUS43 KFGF 152131
RWRFGF
PRAIRIE TO PINES  WEATHER ROUNDUP
NATIONAL WEATHER SERVICE EASTERN NORTH DAKOTA/GRAND FORKS ND
400 PM CDT MON SEP 15 2014

 **SATELLITE DATA USED TO AUGMENT SKY COVER AT AUTOMATED STATIONS**
 *****  WEATHER ACROSS EASTERN NORTH DAKOTA  *****

CITY           SKY/WX    TMP DP  RH WIND       PRES   REMARKS
GRAND FORKS    MOSUNNY   67  39  35 W16G24    30.12F
GRAND FRKS AFB PTSUNNY   66  38  34 W15G21    30.13F
GRAND FRKS NWS   N/A     63 N/A N/A W16         N/A
DEVILS LAKE    SUNNY     66  37  34 W15G22    30.10F
FARGO          MOSUNNY   65  35  33 W10G17    30.17F
WAHPETON ARPT  CLEAR     63  32  31 CALM      30.20F
$$

 ***** WEATHER ACROSS CENTRAL AND WESTERN NORTH DAKOTA  *****

CITY           SKY/WX    TMP DP  RH WIND       PRES   REMARKS
BISMARCK       SUNNY     69  36  29 SW12G20   30.18F
MINOT          SUNNY     67  34  29 SW9G17    30.12F
JAMESTOWN      MOSUNNY   63  38  39 W17       30.18F
MINOT AFB      SUNNY     67  36  32 SW10      30.11F
GARRISON         N/A     66  35  31 W12       30.15F
WILLISTON      SUNNY     67  32  27 S10       30.12F
DICKINSON      SUNNY     65  36  34 SW9G18    30.14F
HETTINGER      SUNNY     64  36  35 S12       30.17F
$$

 *****  OTHER AIRPORT OBSERVATIONS IN OUR AREA  *****

CITY           SKY/WX    TMP DP  RH WIND       PRES   REMARKS
WALHALLA         N/A     66  37  34 W13G21    30.08F
GRAFTON AIRPOR FAIR      64  39  39 W14       30.10F
VALLEY CITY AR FAIR      64  36  34 W14G21    30.18F
CANDO          FAIR      66  32  28 W18G24    30.11F
CAVALIER APRT  FAIR      66  37  34 W10       30.08F
GWINNER        CLEAR     64  36  34 W10       30.21F
ROLLA          FAIR      63  34  34 W14       30.12F
 ***** THE ABOVE OBSERVATIONS ARE NON NWS ARE NOT QUALITY
       CONTROLLED AND MAY MIS-REPORT RAIN FOR SNOW...
$$

  *****  WEATHER ACROSS NORTHERN MINNESOTA  *****

CITY           SKY/WX    TMP DP  RH WIND       PRES   REMARKS
FLAG ISLAND    CLOUDY    59  34  38 W10       30.08S
WARROAD        SUNNY     61  37  41 SW7       30.11F
ROSEAU         SUNNY     63  32  31 W9        30.11F
HALLOCK        MOSUNNY   64  32  29 N3        30.09F
THF RVR FALLS  MOSUNNY   63  36  36 SW10      30.13F
BAUDETTE       SUNNY     61  34  36 W8        30.12F
WASKISH        MOSUNNY   59  39  47 SW9       30.14F
CROOKSTON      PTSUNNY   64  37  36 NW13      30.14F
STEPHEN NDAWN    N/A     66  39  37 W12         N/A
GREENBUSH NDAW   N/A     64  36  34 W8          N/A
$$
  *****  WEATHER ACROSS CENTRAL AND WEST MINNESOTA  *****

CITY           SKY/WX    TMP DP  RH WIND       PRES   REMARKS
FOSSTON        CLOUDY    61  46  59 W10       30.16F
BEMIDJI        PTSUNNY   60  34  37 W14       30.16F
PARK RAPIDS    SUNNY     60  31  33 NW9       30.18F
ELBOW LAKE     FAIR      60  34  38 NW7       30.20F
WADENA         SUNNY     59  34  38 NW10      30.19F
DETROIT LAKES  MOSUNNY   59  34  38 NW7       30.20F
MOORHEAD       SUNNY     64  27  24 W9        30.18F
FERGUS FALLS   SUNNY     61  27  27 NW7       30.20F
MORRIS MN      SUNNY     63  32  31 NW10G17   30.20F
STAPLES        SUNNY     59  30  33 NW8       30.19F
$$
  *****  WEATHER ELSEWHERE ACROSS MINNESOTA  *****

CITY           SKY/WX    TMP DP  RH WIND       PRES   REMARKS
DULUTH         MOSUNNY   57  33  40 NW8       30.15F
INTRNTL FALLS  MOSUNNY   60  35  39 W12G20    30.11F
ELY            PTSUNNY   55  34  44 NW8       30.12F
CLOQUET        PTSUNNY   57  30  35 W8        30.16S
WHEATON        SUNNY     61  32  33 CALM      30.23S
BRAINERD       PTSUNNY   60  34  37 NW10      30.19F
HIBBING        MOSUNNY   57  34  41 W8        30.16F
ALEXANDRIA     SUNNY     59  33  37 NW7       30.22F
SAINT CLOUD    PTSUNNY   63  35  35 N14       30.19F
MINNEAPOLIS    MOSUNNY   61  36  39 NW7       30.19F
$$

  *****  WEATHER ACROSS SOUTH DAKOTA  *****

CITY           SKY/WX    TMP DP  RH WIND       PRES   REMARKS
SIOUX FALLS    MOSUNNY   62  43  49 NW7       30.24F
BROOKINGS      NOT AVBL
WATERTOWN      SUNNY     61  35  37 VRB7      30.23F
HURON          SUNNY     64  33  31 N8        30.24F
SISSETON         N/A     64  31  28 MISG      30.21F
ABERDEEN       SUNNY     64  35  34 N7        30.23F
MITCHELL       SUNNY     64  38  38 NE7       30.25F
PIERRE         SUNNY     63  36  36 VRB6      30.22F
MOBRIDGE       SUNNY     64  34  32 S7        30.19F
RAPID CITY     SUNNY     66  44  45 S18G26    30.18F
$$

  *****  SOME WEATHER IN NEARBY STATES *****

CITY           SKY/WX    TMP DP  RH WIND       PRES   REMARKS
GLASGOW MT     SUNNY     67  35  30 SW8       30.08F
GREAT FALLS MT SUNNY     75  33  21 SW3       30.04F
CHEYENNE WY    MOSUNNY   69  35  28 S14       30.29F
SCOTTSBLUFF NE SUNNY     70  46  42 SE17      30.23F
OMAHA NE       MOSUNNY   61  45  55 N14       30.24S
DES MOINES IA  PTSUNNY   62  47  57 N12       30.19R
DAVENPORT IA   CLOUDY    58  50  75 N17       30.12R
CHICAGO IL     CLOUDY    59  53  80 NW6       30.09S
EAU CLAIRE WI  PTSUNNY   60  36  40 N8G18     30.16S
LA CROSSE WI   MOSUNNY   62  48  60 W9        30.16F
$$

  *****  SOME NATIONAL WEATHER *****

CITY           SKY/WX    TMP DP  RH WIND       PRES   REMARKS
LA GUARDIA NY  PTSUNNY   70  43  37 S6        30.11F
RALEIGH NC     CLOUDY    72  63  73 S6        30.15S
ATLANTA GA     CLOUDY    78  69  73 NE6       30.12F
NEW ORLEANS LA TSTM      76  73  91 S13       30.05F FOG
OKLAHOMA CITY  PTSUNNY   83  65  54 S9        30.11F
ALBUQUERQUE NM MOSUNNY   83  54  36 VRB3      30.17F
SALT LAKE CITY MOSUNNY   87  41  19 NW10      30.08F
LOS ANGELES CA MOSUNNY   82  61  48 W18       29.79F
BOISE ID       SUNNY     90  32  12 VRB3      29.98F
SEATTLE WA     MOSUNNY   83  43  24 NW7       29.85F
$$

*** WEATHER ACROSS MANITOBA...SASKATCHEWAN AND ONTARIO ***
                ***ONTARIO***

CITY           SKY/WX    TMP DP  RH WIND       PRES   REMARKS
GERALDTON      MOSUNNY   50  41  71 NW8       30.00S
THUNDER BAY    MOSUNNY   59  39  47 NW7       30.06F
SIOUX LOOKOUT  MOSUNNY   59  39  47 W16G22    30.01F
TORONTO        CLOUDY    57  54  88 SW9       30.08
BIG TROUT LK   CLOUDY    55  39  54 W13G21    29.79F
PICKLE LAKE    PTSUNNY   55  36  47 W12G18    29.92F
DRYDEN         SUNNY     61  36  39 W20G26    30.03F
KENORA         PTSUNNY   59  34  38 W8G20     30.07
$$
                *** MANITOBA***

CITY           SKY/WX    TMP DP  RH WIND       PRES   REMARKS
BRANDON        MOSUNNY   64  39  39 SW14      30.07F
DAUPHIN        MOSUNNY   68  39  34 W16G24    29.98F
ISLAND LAKE    PTSUNNY   63  36  36 W10       29.83F
PILOT MOUND      N/A     64  34  32 W12G18      N/A
THE PAS        LGT RAIN N/A N/A N/A W10         N/A
THOMPSON       LGT RAIN  39  39 100 NE15      29.90
WINNIPEG       MOSUNNY   66  32  28 W15       30.07
LYNN LAKE      CLOUDY    41  32  70 MISG      29.97R
CHURCHILL      PTSUNNY   37  27  65 N16G23    29.96S
GILLAM         DRIZZLE   36  34  93 N20G26    29.92R
$$
                ***SASKATCHEWAN***

CITY           SKY/WX    TMP DP  RH WIND       PRES   REMARKS
ESTEVAN        MOSUNNY   66  39  37 SW7       30.09F
KINDERSLEY     MOSUNNY   72  37  28 W8        30.01F
LLOYDMINSTER   MOSUNNY   73  39  29 W13G24    29.95
PRINCE ALBERT  PTSUNNY   68  45  42 NW12      29.93
REGINA         MOSUNNY   68  39  34 W16G24    30.04F
YORKTON        CLOUDY    66  39  37 W16G23    29.99F
N. BATTLEFORD  MOSUNNY   73  39  29 W14G24    29.98F
LA RONGE       PTSUNNY   68  41  37 W14G21    29.90S
SASKATOON      MOSUNNY   70  39  32 W12G21    29.99F
SWIFT CURRENT  SUNNY     68  32  26 NW7       30.03F
$$
NOTE: THESE ARE AUTOMATED STATIONS WITH LIMITED QUALITY CONTROL
      "FAIR" INDICATES FEW OR NO CLOUDS BELOW 12,000 FEET WITH NO
      SIGNIFICANT WEATHER AND/OR OBSTRUCTIONS TO VISIBILITY.
      SKY/WX - SKY CONDITION AND SIGNIFICANT WEATHER.
      TMP - AIR TEMPERATURE.    DP   - DEWPOINT TEMPERATURE.
      RH  - RELATIVE HUMIDITY.  PRES - PRESSURE.
      HX  - HEAT INDEX.         WCI  - WIND CHILL INDEX.
$


USA.gov is the U.S. government's official web portal to all federal, state and local government web resources and services.